Weather reports worldwide

Advertisment
Farnborough, United Kingdom (3768): temperature & dewpoint: 29.07.2020 15:00:00 - 04.08.2020 15:00:00 (BST)Farnborough, United Kingdom (3768): temperature -100cm: 29.07.2020 15:00:00 - 04.08.2020 15:00:00 (BST)Farnborough, United Kingdom (3768): wind speed & gusts: 29.07.2020 15:00:00 - 04.08.2020 15:00:00 (BST)Farnborough, United Kingdom (3768): wind direction: 29.07.2020 15:00:00 - 04.08.2020 15:00:00 (BST)Farnborough, United Kingdom (3768): reduced air pressure: 29.07.2020 15:00:00 - 04.08.2020 15:00:00 (BST)Farnborough, United Kingdom (3768): visibility: 29.07.2020 15:00:00 - 04.08.2020 15:00:00 (BST)Farnborough, United Kingdom (3768): precipitation: 29.07.2020 15:00:00 - 04.08.2020 15:00:00 (BST)
Date & Time tt [°C] td [°C] tt -100cm [°C] ff [km/h] ff [kn] fx [km/h] fx [kn] dd ppp [hPa] vv [km] rr [mm]
04.08.2020 15:00:00 20,5 8,2 - 24 13 - - SSW 1015,8 10 0,0
04.08.2020 14:00:00 21,3 6,7 - 24 13 - - SSW 1016,1 10 0,0
04.08.2020 13:00:00 20,6 6,4 - 18 10 - - SSW 1016,5 10 0,0
04.08.2020 12:00:00 19,7 5,9 - 21 11 - - WSW 1016,9 10 0,0
04.08.2020 11:00:00 19,7 5,4 - 18 10 - - WSW 1016,9 10 0,0
04.08.2020 10:00:00 18,9 7,6 16,0 16 9 - - WSW 1017,3 10 0,0
04.08.2020 09:00:00 16,6 10,0 - 4 2 - - WSW 1017,4 45 0,0
04.08.2020 08:00:00 13,5 9,1 - 2 1 - - SSE 1017,6 50 0,0
04.08.2020 07:00:00 9,2 8,1 - 0 0 - - N 1017,2 10 0,0
04.08.2020 06:00:00 7,4 6,3 - 2 1 - - SW 1017,4 10 0,0
04.08.2020 05:00:00 7,4 6,4 - 5 3 - - SW 1017,5 10 0,0
04.08.2020 04:00:00 8,1 6,5 - 4 2 - - SW 1017,6 50 0,0
04.08.2020 03:00:00 7,9 5,9 - 5 3 - - SW 1017,8 50 0,0
04.08.2020 02:00:00 8,6 6,1 - 2 1 - - W 1017,9 50 0,0
04.08.2020 01:00:00 9,5 6,9 - 8 4 - - WSW 1018,1 10 0,0
04.08.2020 00:00:00 10,2 7,1 - 5 3 - - WSW 1018,0 40 0,0
03.08.2020 23:00:00 10,9 7,3 - 5 3 - - SSW 1017,6 10 0,0
03.08.2020 22:00:00 14,2 6,9 - 4 2 - - - 1017,2 10 0,0
03.08.2020 21:00:00 17,4 7,4 - 9 5 - - N 1016,7 10 0,0
03.08.2020 20:00:00 19,0 7,0 - 15 8 - - NNW 1016,0 10 0,0
03.08.2020 19:00:00 19,4 5,7 - 16 9 - - WNW 1015,6 10 0,0
03.08.2020 18:00:00 21,4 6,0 - 13 7 - - WNW 1015,3 10 0,0
03.08.2020 17:00:00 21,4 4,5 - 16 9 - - NNW 1015,4 10 0,0
03.08.2020 16:00:00 21,4 4,3 - 18 10 - - NNW 1015,4 10 0,0
03.08.2020 15:00:00 20,7 4,7 - 18 10 - - NW 1015,6 10 0,0
03.08.2020 14:00:00 20,1 7,2 - 13 7 - - NW 1015,9 10 0,0
03.08.2020 13:00:00 21,1 7,9 - 13 7 - - WNW 1016,1 10 0,0
03.08.2020 12:00:00 19,4 9,2 - 16 9 - - NW 1016,3 10 0,0
03.08.2020 11:00:00 19,4 9,0 - 13 7 - - NNW 1016,2 65 0,0
03.08.2020 10:00:00 17,8 8,8 16,0 13 7 - - NW 1016,4 10 0,0
03.08.2020 09:00:00 16,0 10,3 - 11 6 - - NW 1016,4 15 0,0
03.08.2020 08:00:00 13,0 9,7 - 9 5 - - WNW 1016,2 4,2 0,0
03.08.2020 07:00:00 12,4 10,0 - 8 4 - - W 1016,1 10 0,0
03.08.2020 06:00:00 11,2 9,1 - 8 4 - - SW 1015,7 10 0,0
03.08.2020 05:00:00 11,9 9,7 - 8 4 - - W 1015,4 10 0,0
03.08.2020 04:00:00 12,7 10,2 - 9 5 - - WNW 1015,3 10 0,0
03.08.2020 03:00:00 13,9 10,6 - 11 6 - - W 1015,4 10 0,0
03.08.2020 02:00:00 14,5 10,4 - 9 5 - - W 1015,6 10 0,0
03.08.2020 01:00:00 15,1 10,0 - 13 7 - - WNW 1015,7 10 0,0
03.08.2020 00:00:00 16,0 10,4 - 15 8 - - W 1015,7 60 0,0
02.08.2020 23:00:00 16,9 11,6 - 13 7 - - W 1015,8 55 0,0
02.08.2020 22:00:00 17,2 12,5 - 15 8 - - WSW 1015,8 10 0,0
02.08.2020 21:00:00 17,7 12,2 - 15 8 - - SW 1015,8 10 0,0
02.08.2020 20:00:00 18,5 12,1 - 21 11 - - SW 1015,6 10 0,0
02.08.2020 19:00:00 19,3 12,3 - 24 13 - - SW 1015,4 10 0,0
02.08.2020 18:00:00 20,1 11,8 - 21 11 - - SW 1015,3 10 0,0
02.08.2020 17:00:00 21,4 9,3 - 13 7 - - W 1015,5 10 0,0
02.08.2020 16:00:00 21,7 9,6 - 11 6 - - W 1015,8 10 0,0
02.08.2020 15:00:00 20,9 9,6 - 21 11 - - WSW 1016,3 10 0,0
02.08.2020 14:00:00 21,9 10,1 - 16 9 - - WSW 1016,6 10 0,0
02.08.2020 13:00:00 20,6 11,5 - 18 10 - - W 1017,0 10 0,0
02.08.2020 12:00:00 19,4 10,0 - 18 10 - - W 1017,4 10 0,0
02.08.2020 11:00:00 19,6 11,3 - 18 10 - - WSW 1017,6 10 0,0
02.08.2020 10:00:00 18,1 11,2 16,0 16 9 - - W 1017,8 50 0,0
02.08.2020 09:00:00 16,5 11,7 - 15 8 - - WSW 1017,9 50 0,0
02.08.2020 08:00:00 15,2 11,6 - 16 9 - - WSW 1017,8 10 0,0
02.08.2020 07:00:00 12,4 11,0 - 11 6 - - WSW 1018,0 10 0,0
02.08.2020 06:00:00 9,9 8,8 - 9 5 - - SW 1017,7 10 0,0
02.08.2020 05:00:00 10,8 9,3 - 9 5 - - WSW 1017,5 10 0,0
02.08.2020 04:00:00 11,6 9,1 - 13 7 - - WSW 1017,2 10 0,0
02.08.2020 03:00:00 12,0 9,4 - 13 7 - - WSW 1017,3 10 0,0
02.08.2020 02:00:00 12,6 9,2 - 9 5 - - WSW 1017,4 28 0,0
02.08.2020 01:00:00 14,3 9,9 - 15 8 - - W 1017,2 10 0,0
02.08.2020 00:00:00 14,9 10,0 - 15 8 - - WSW 1017,3 10 0,0
01.08.2020 23:00:00 16,3 10,5 - 13 7 - - W 1017,2 10 0,0
01.08.2020 22:00:00 17,6 11,4 - 16 9 - - W 1016,9 10 0,0
01.08.2020 21:00:00 19,0 11,0 - 16 9 - - W 1016,2 50 0,0
01.08.2020 20:00:00 20,8 11,6 - 21 11 - - W 1015,4 10 0,0
01.08.2020 19:00:00 22,0 12,3 - 21 11 - - W 1015,2 10 0,0
01.08.2020 18:00:00 22,3 11,4 - 26 14 - - WSW 1015,2 10 0,0
01.08.2020 17:00:00 23,3 13,0 - 18 10 - - W 1015,2 10 0,0
01.08.2020 16:00:00 23,8 13,6 - 16 9 - - WSW 1015,3 10 0,0
01.08.2020 15:00:00 23,2 12,9 - 16 9 - - W 1015,3 50 0,0
01.08.2020 14:00:00 23,6 12,6 - 16 9 - - WSW 1015,5 10 0,0
01.08.2020 13:00:00 22,2 12,2 - 18 10 - - W 1015,8 10 0,0
01.08.2020 12:00:00 22,0 12,6 - 16 9 - - W 1015,8 10 0,0
01.08.2020 11:00:00 20,4 13,8 - 15 8 - - W 1016,0 10 0,0
01.08.2020 10:00:00 20,4 14,1 15,9 16 9 - - W 1015,8 10 0,0
01.08.2020 09:00:00 19,1 13,8 - 16 9 - - WSW 1015,6 40 0,0
01.08.2020 08:00:00 17,3 14,0 - 13 7 - - WSW 1015,4 10 0,0
01.08.2020 07:00:00 15,3 13,7 - 11 6 - - SW 1015,4 10 0,0
01.08.2020 06:00:00 13,4 12,3 - 8 4 - - SW 1015,4 10 0,0
01.08.2020 05:00:00 14,0 12,0 - 8 4 - - SW 1014,8 10 0,0
01.08.2020 04:00:00 16,4 13,2 - 15 8 - - W 1014,6 10 0,0
01.08.2020 03:00:00 18,0 13,9 - 11 6 - - W 1013,9 45 0,0
01.08.2020 02:00:00 18,6 15,9 - 16 9 - - W 1013,8 35 0,0
01.08.2020 01:00:00 19,5 17,3 - 13 7 - - WSW 1013,2 10 0,0
01.08.2020 00:00:00 19,1 17,0 - 13 7 - - SW 1012,9 10 0,0
31.07.2020 23:00:00 19,4 16,9 - 13 7 - - SW 1012,5 25 0,0
31.07.2020 22:00:00 19,5 16,6 - 13 7 - - SSW 1012,0 10 0,0
31.07.2020 21:00:00 20,4 16,2 - 15 8 - - SSW 1011,6 10 0,0
31.07.2020 20:00:00 22,1 16,0 - 11 6 - - SSW 1010,9 10 0,0
31.07.2020 19:00:00 23,9 15,1 - 21 11 - - SW 1010,6 10 0,0
31.07.2020 18:00:00 25,9 14,8 - 21 11 - - SSW 1010,2 10 0,0
31.07.2020 17:00:00 28,0 14,3 - 21 11 - - SSW 1009,7 10 0,0
31.07.2020 16:00:00 30,3 13,8 - 24 13 - - S 1009,4 10 0,0
31.07.2020 15:00:00 33,4 13,8 - 24 13 - - SSE 1008,6 10 0,0
31.07.2020 14:00:00 34,6 12,9 - 26 14 48 26 SE 1008,5 10 0,0
31.07.2020 13:00:00 34,3 11,9 - 26 14 - - SSE 1009,1 10 0,0
31.07.2020 12:00:00 33,1 11,7 - 21 11 - - SE 1009,7 40 0,0
31.07.2020 11:00:00 30,0 11,0 - 21 11 - - SE 1010,5 10 0,0
31.07.2020 10:00:00 28,1 11,6 15,7 16 9 - - SE 1011,1 10 0,0
31.07.2020 09:00:00 24,9 11,7 - 15 8 - - ESE 1011,4 10 0,0
31.07.2020 08:00:00 22,0 12,3 - 11 6 - - ESE 1012,0 10 0,0
31.07.2020 07:00:00 18,8 11,7 - 11 6 - - ESE 1012,4 10 0,0
31.07.2020 06:00:00 17,0 11,4 - 13 7 - - ESE 1012,5 30 0,0
31.07.2020 05:00:00 16,4 11,3 - 8 4 - - SSE 1013,2 10 0,0
31.07.2020 04:00:00 17,0 11,0 - 8 4 - - ESE 1013,6 10 0,0
31.07.2020 03:00:00 16,5 10,8 - 8 4 - - SE 1014,1 10 0,0
31.07.2020 02:00:00 16,4 10,3 - 5 3 - - ESE 1014,8 10 0,0
31.07.2020 01:00:00 15,5 10,7 - 9 5 - - SE 1015,4 10 0,0
31.07.2020 00:00:00 14,5 10,6 - 5 3 - - - 1015,7 10 0,0
30.07.2020 23:00:00 15,6 9,8 - 5 3 - - SSW 1015,6 10 0,0
30.07.2020 22:00:00 16,9 9,3 - 5 3 - - SSW 1015,4 10 0,0
30.07.2020 21:00:00 22,6 7,8 - 8 4 - - ESE 1015,2 10 0,0
30.07.2020 20:00:00 24,9 7,8 - 11 6 - - SSE 1015,5 10 0,0
30.07.2020 19:00:00 26,0 8,1 - 15 8 - - SE 1015,6 10 0,0
30.07.2020 18:00:00 26,9 7,0 - 15 8 - - S 1016,0 10 0,0
30.07.2020 17:00:00 27,4 9,2 - 13 7 - - ESE 1016,4 10 0,0
30.07.2020 16:00:00 27,0 9,7 - 11 6 - - S 1016,9 65 0,0
30.07.2020 15:00:00 26,1 5,4 - 15 8 - - S 1017,5 10 0,0
30.07.2020 14:00:00 26,3 9,9 - 11 6 - - S 1017,6 10 0,0
30.07.2020 13:00:00 24,6 8,8 - 13 7 - - S 1018,3 10 0,0
30.07.2020 12:00:00 23,3 10,1 - 9 5 - - - 1018,8 10 0,0
30.07.2020 11:00:00 21,5 9,5 - 11 6 - - S 1019,2 10 0,0
30.07.2020 10:00:00 19,7 10,2 15,7 11 6 - - SSW 1019,6 10 0,0
30.07.2020 09:00:00 18,0 10,2 - 15 8 - - S 1019,4 10 0,0
30.07.2020 08:00:00 15,8 11,0 - 13 7 - - SSE 1019,5 10 0,0
30.07.2020 07:00:00 13,4 12,2 - 2 1 - - - 1019,5 10 0,0
30.07.2020 06:00:00 10,0 9,0 - 4 2 - - SSW 1019,3 10 0,0
30.07.2020 05:00:00 10,4 9,4 - 4 2 - - S 1019,3 10 0,0
30.07.2020 04:00:00 10,6 9,3 - 5 3 - - SSW 1019,6 10 0,0
30.07.2020 03:00:00 11,9 9,4 - 0 0 - - N 1019,7 10 0,0
30.07.2020 02:00:00 12,1 9,4 - 5 3 - - S 1019,9 10 0,0
30.07.2020 01:00:00 13,9 9,8 - 4 2 - - S 1020,3 10 0,0
30.07.2020 00:00:00 14,7 9,3 - 4 2 - - - 1020,2 10 0,0
29.07.2020 23:00:00 15,5 9,6 - 4 2 - - - 1020,0 10 0,0
29.07.2020 22:00:00 16,1 10,5 - 8 4 - - SSW 1020,2 10 0,0
29.07.2020 21:00:00 17,3 10,7 - 11 6 - - SW 1019,8 10 0,0
29.07.2020 20:00:00 19,3 11,0 - 18 10 - - SW 1019,3 40 0,0
29.07.2020 19:00:00 20,8 10,6 - 13 7 - - WSW 1019,0 10 0,0
29.07.2020 18:00:00 21,6 9,7 - 13 7 - - WSW 1019,2 10 0,0
29.07.2020 17:00:00 22,9 10,0 - 11 6 - - WSW 1019,4 10 0,0
29.07.2020 16:00:00 21,9 9,9 - 13 7 - - SSW 1019,7 10 0,0
29.07.2020 15:00:00 21,3 8,6 - 11 6 - - SW 1020,1 10 0,0

tt = temperature
td = dewpoint
tt -100cm = temperature -100cm
ff = wind speed
fx = gusts
dd = wind direction
ppp = reduced air pressure
vv = visibility
rr = precipitation

Next stations